Regional Weather Roundup
Issued by NWS Northern Indiana

Home | Current Version | Previous Version | Text Only | Print | Product List | Glossary On
Versions: 1 2 3 4 5 6 7 8 9 10 11 12 13 14 15 16 17 18 19 20 21 22 23 24 25 26 27 28 29 30 31 32 33 34 35 36 37 38 39 40 41 42 43 44 45 46 47 48 49 50
000
ASUS43 KIWX 260910
RWRIWX

KIWX WEATHER ROUNDUP
NATIONAL WEATHER SERVICE NORTHERN INDIANA
500 AM EDT SUN MAR 26 2017

NOTE: "FAIR" INDICATES FEW OR NO CLOUDS BELOW 12,000 FEET WITH NO
SIGNIFICANT WEATHER AND/OR OBSTRUCTIONS TO VISIBILITY.

* THESE STATIONS ARE NOT UNDER NWS QUALITY CONTROL. THEY ALSO MAY NOT
  REPORT WEATHER SUCH AS PRECIPITATION OR FOG.

INZ001>027-261000-
NORTHERN INDIANA

CITY           SKY/WX    TMP DP  RH WIND       PRES   REMARKS
GARY*          LGT RAIN  53  51  93 SE9       29.89F
VALPARAISO     LGT RAIN  50  49  96 E10       29.91F FOG
MICHIGAN CITY* LGT RAIN  46  46 100 E6        29.92F
LAPORTE*       DRIZZLE   46  45  96 E10       29.93F
KNOX*          CLOUDY    46  36  66 E10       29.92F
SOUTH BEND     CLOUDY    44 N/A N/A E10       29.95F
GOSHEN         CLOUDY    44  40  85 E10       29.96F
MONTICELLO*    RAIN      51  49  95 E7        29.90F
LOGANSPORT*    LGT RAIN  46  46 100 E12       29.93F
ROCHESTER*     LGT RAIN  48  46  93 E8        29.94F
WARSAW*        DRIZZLE   43  41  93 E7        29.95F
ANGOLA*        CLOUDY    39  39 100 E9        29.98F
FORT WAYNE     LGT RAIN  43  40  89 E7        29.98S FOG
HUNTINGTON*    LGT RAIN  43  42  95 E5        29.97S
PERU/GRISSOM   LGT RAIN  48  48 100 E10       29.92F
MARION*        LGT RAIN  51  50  95 SE7       29.95F

$$
INZ028>050-261000-
CENTRAL INDIANA

CITY           SKY/WX    TMP DP  RH WIND       PRES   REMARKS
LAFAYETTE      RAIN      57  56  96 SE7       29.89F
KOKOMO*        LGT RAIN  50  49  96 E7        29.94F FOG
MUNCIE*        RAIN      59  55  87 S13       29.96F FOG
INDIANAPOLIS   LGT RAIN  57  55  93 SE10      29.92F

$$
MIZ043>046-050>051-056>058-064>065-071>073-077>080-261000-
SOUTHWEST LOWER MICHIGAN

CITY           SKY/WX    TMP DP  RH WIND       PRES   REMARKS
BATTLE CREEK   LGT RAIN  42  40  92 E9        30.00F
BENTON HARBOR  CLOUDY    47  43  86 E12       29.93F
COLDWATER*     CLOUDY    42  40  95 E8        29.98F
HILLSDALE*     CLOUDY    37  36  93 E9G16     30.00F
HOLLAND        LGT RAIN  43  41  93 E16       29.98F
GRAND RAPIDS   LGT RAIN  40 N/A N/A E17       30.00F
KALAMAZOO      CLOUDY    43  39  86 E7        29.99F
STURGIS*       CLOUDY    42  40  96 E7        29.96F
THREE RIVERS*  MOCLDY    43  41  91 E8        29.97F

$$
OHZ001>008-015>018-024>025-261000-
NORTHWEST OHIO

CITY           SKY/WX    TMP DP  RH WIND       PRES   REMARKS
WAUSEON*       CLOUDY    39  37  93 NE13      30.03F
DEFIANCE       CLOUDY    39  36  89 NE9       30.01F
FINDLAY        CLOUDY    42  36  79 NE10      30.00F
TOLEDO EXPRESS CLOUDY    38  36  92 NE13      30.03F
TOLEDO METCALF CLOUDY    39  37  92 NE7       30.03F
LIMA           CLOUDY    43  41  93 NE7       29.99F

$$
AND FOR LAKE MICHIGAN COASTAL AND OPEN LAKE BUOY OBSERVATIONS

STATION/POSITION TEMP    WIND        PRES    VSBY  WAVE
                 AIR SEA DIR/SP/G                  HT/PER
                 (F)     (DEG/KT/KT) (MB)    (MI)  (FT/S)
CALUMET HARBOR    44      90/  3/  4 1011.7F
MICHIGAN CITY     48     110/ 12/ 14   N/A
BURNS HARBOR      52     130/ 14/ 18 1012.9F

$$
&&




USA.gov is the U.S. government's official web portal to all federal, state and local government web resources and services.